| time (UTC) | temp C | wind direction | speed KPH | gust KPH | rain 1hr cm | rain 24hr cm | rain mn cm | humidity % | barometer mb |
| 20260507073502 | 8 | 65 | 1.6 | 4.8 | 0.00 | 0.61 | 0.10 | 94 | 1012.0 |
| 20260507073001 | 8 | 65 | 0.0 | 4.8 | 0.00 | 0.61 | 0.10 | 94 | 1011.9 |
| 20260507072501 | 8 | 65 | 1.6 | 4.8 | 0.00 | 0.61 | 0.10 | 94 | 1011.9 |
| 20260507072103 | 8 | 65 | 1.6 | 4.8 | 0.00 | 0.61 | 0.10 | 94 | 1011.9 |
| 20260507071558 | 8 | 53 | 0.0 | 1.6 | 0.00 | 0.61 | 0.10 | 94 | 1011.9 |
| 20260507071058 | 8 | 53 | 0.0 | 3.2 | 0.00 | 0.61 | 0.10 | 94 | 1011.8 |
| 20260507070558 | 8 | 53 | 0.0 | 3.2 | 0.00 | 0.61 | 0.10 | 94 | 1011.7 |
| 20260507070107 | 8 | 53 | 0.0 | 3.2 | 0.00 | 0.61 | 0.10 | 94 | 1011.7 |
| 20260507065556 | 8 | 53 | 0.0 | 4.8 | 0.00 | 0.66 | 0.10 | 94 | 1011.7 |
| 20260507065058 | 8 | 53 | 1.6 | 4.8 | 0.00 | 0.66 | 0.10 | 94 | 1011.6 |
| 20260507064559 | 8 | 53 | 1.6 | 8.0 | 0.00 | 0.66 | 0.10 | 94 | 1011.5 |
| 20260507064056 | 8 | 52 | 3.2 | 8.0 | 0.00 | 0.66 | 0.10 | 94 | 1011.5 |
| 20260507063554 | 8 | 42 | 0.0 | 3.2 | 0.00 | 0.66 | 0.10 | 94 | 1011.5 |
| 20260507063055 | 8 | 42 | 1.6 | 4.8 | 0.00 | 0.66 | 0.10 | 94 | 1011.4 |
| 20260507062553 | 8 | 43 | 1.6 | 4.8 | 0.00 | 0.66 | 0.10 | 94 | 1011.4 |
| 20260507062052 | 8 | 43 | 3.2 | 4.8 | 0.00 | 0.66 | 0.10 | 94 | 1011.3 |
| 20260507061551 | 8 | 350 | 0.0 | 4.8 | 0.00 | 0.66 | 0.10 | 94 | 1011.3 |
| 20260507061049 | 7 | 9 | 1.6 | 4.8 | 0.00 | 0.66 | 0.10 | 94 | 1011.2 |
| 20260507060551 | 8 | 9 | 1.6 | 4.8 | 0.00 | 0.66 | 0.10 | 94 | 1011.1 |
| 20260507060048 | 8 | 19 | 1.6 | 4.8 | 0.00 | 0.66 | 0.10 | 94 | 1011.0 |
| 20260507055547 | 8 | 20 | 1.6 | 4.8 | 0.00 | 0.79 | 0.10 | 94 | 1011.0 |
| 20260507055046 | 7 | 24 | 0.0 | 6.4 | 0.00 | 0.79 | 0.10 | 94 | 1010.9 |
| 20260507054546 | 7 | 22 | 1.6 | 6.4 | 0.03 | 0.79 | 0.10 | 94 | 1010.9 |
| 20260507054049 | 7 | 26 | 0.0 | 6.4 | 0.03 | 0.79 | 0.10 | 94 | 1010.8 |
| 20260507053543 | 7 | 27 | 1.6 | 4.8 | 0.03 | 0.79 | 0.10 | 94 | 1010.8 |
| 20260507053044 | 7 | 11 | 0.0 | 4.8 | 0.03 | 0.79 | 0.10 | 94 | 1010.7 |
| 20260507052542 | 7 | 11 | 0.0 | 6.4 | 0.03 | 0.79 | 0.10 | 94 | 1010.7 |
| 20260507052043 | 7 | 17 | 1.6 | 4.8 | 0.03 | 0.79 | 0.10 | 94 | 1010.6 |
| 20260507051541 | 7 | 203 | 0.0 | 6.4 | 0.03 | 0.79 | 0.10 | 94 | 1010.6 |
| 20260507051040 | 7 | 5 | 3.2 | 8.0 | 0.03 | 0.79 | 0.10 | 94 | 1010.5 |
| 20260507050540 | 7 | 22 | 3.2 | 8.0 | 0.03 | 0.79 | 0.10 | 94 | 1010.4 |
| 20260507050100 | 7 | 309 | 3.2 | 8.0 | 0.03 | 0.79 | 0.10 | 94 | 1010.5 |
| 20260507045539 | 7 | 25 | 3.2 | 8.0 | 0.03 | 0.99 | 0.10 | 94 | 1010.4 |
| 20260507045038 | 7 | 11 | 4.8 | 14.5 | 0.00 | 0.97 | 0.08 | 94 | 1010.3 |
| 20260507044549 | 7 | 16 | 3.2 | 14.5 | 0.00 | 0.97 | 0.08 | 94 | 1010.4 |
| 20260507044039 | 7 | 355 | 1.6 | 6.4 | 0.00 | 0.97 | 0.08 | 94 | 1010.3 |
| 20260507043534 | 7 | 355 | 1.6 | 6.4 | 0.00 | 0.97 | 0.08 | 94 | 1010.3 |
| 20260507043134 | 7 | 355 | 1.6 | 6.4 | 0.00 | 0.97 | 0.08 | 94 | 1010.2 |
| 20260507042536 | 7 | 355 | 3.2 | 6.4 | 0.00 | 0.97 | 0.08 | 94 | 1010.1 |
| 20260507042033 | 7 | 355 | 1.6 | 9.7 | 0.00 | 0.97 | 0.08 | 94 | 1010.1 |
| 20260507041533 | 7 | 327 | 3.2 | 9.7 | 0.00 | 0.97 | 0.08 | 94 | 1010.0 |
| 20260507041033 | 7 | 318 | 4.8 | 9.7 | 0.00 | 0.97 | 0.08 | 94 | 1010.0 |
| 20260507040531 | 7 | 350 | 3.2 | 8.0 | 0.00 | 0.97 | 0.08 | 94 | 1009.9 |
| 20260507040032 | 7 | 327 | 3.2 | 8.0 | 0.00 | 0.97 | 0.08 | 94 | 1009.9 |
| 20260507035530 | 7 | 345 | 3.2 | 9.7 | 0.00 | 1.24 | 0.08 | 94 | 1009.9 |
| 20260507035033 | 7 | 16 | 1.6 | 6.4 | 0.00 | 1.24 | 0.08 | 94 | 1009.8 |
| 20260507034535 | 7 | 15 | 3.2 | 8.0 | 0.00 | 1.24 | 0.08 | 94 | 1009.8 |
| 20260507034029 | 7 | 338 | 1.6 | 8.0 | 0.00 | 1.24 | 0.08 | 94 | 1009.8 |
| 20260507033530 | 7 | 13 | 3.2 | 8.0 | 0.00 | 1.24 | 0.08 | 94 | 1009.9 |
| 20260507033036 | 8 | 327 | 1.6 | 6.4 | 0.00 | 1.24 | 0.08 | 94 | 1009.8 |
| 20260507032527 | 8 | 261 | 0.0 | 3.2 | 0.00 | 1.24 | 0.08 | 94 | 1009.8 |
| 20260507032027 | 8 | 261 | 0.0 | 4.8 | 0.00 | 1.24 | 0.08 | 94 | 1009.7 |
| 20260507031532 | 8 | 288 | 0.0 | 4.8 | 0.00 | 1.24 | 0.08 | 94 | 1009.6 |
| 20260507031028 | 7 | 19 | 0.0 | 3.2 | 0.00 | 1.24 | 0.08 | 94 | 1009.6 |
| 20260507030526 | 7 | 360 | 0.0 | 4.8 | 0.00 | 1.24 | 0.08 | 94 | 1009.6 |
| 20260507030033 | 7 | 360 | 1.6 | 8.0 | 0.00 | 1.24 | 0.08 | 94 | 1009.5 |
| 20260507025524 | 8 | 17 | 1.6 | 8.0 | 0.00 | 1.42 | 0.08 | 94 | 1009.4 |
| 20260507025024 | 8 | 325 | 0.0 | 4.8 | 0.00 | 1.42 | 0.08 | 94 | 1009.4 |
| 20260507024528 | 8 | 21 | 0.0 | 3.2 | 0.00 | 1.42 | 0.08 | 94 | 1009.5 |
| 20260507024023 | 8 | 21 | 0.0 | 3.2 | 0.00 | 1.42 | 0.08 | 94 | 1009.4 |
| 20260507023523 | 8 | 21 | 0.0 | 4.8 | 0.00 | 1.42 | 0.08 | 94 | 1009.4 |
| 20260507023022 | 8 | 21 | 0.0 | 6.4 | 0.00 | 1.42 | 0.08 | 94 | 1009.4 |
| 20260507022522 | 8 | 26 | 3.2 | 6.4 | 0.00 | 1.42 | 0.08 | 94 | 1009.3 |
| 20260507022023 | 8 | 26 | 3.2 | 6.4 | 0.00 | 1.42 | 0.08 | 94 | 1009.3 |
| 20260507021538 | 8 | 313 | 3.2 | 6.4 | 0.00 | 1.42 | 0.08 | 94 | 1009.3 |
| 20260507021021 | 8 | 15 | 1.6 | 4.8 | 0.00 | 1.42 | 0.08 | 94 | 1009.3 |
| 20260507020521 | 8 | 13 | 0.0 | 6.4 | 0.00 | 1.42 | 0.08 | 94 | 1009.2 |
| 20260507020024 | 8 | 13 | 3.2 | 8.0 | 0.00 | 1.42 | 0.08 | 94 | 1009.2 |
| 20260507015519 | 8 | 22 | 1.6 | 8.0 | 0.00 | 1.68 | 0.08 | 94 | 1009.2 |
| 20260507015019 | 8 | 26 | 1.6 | 4.8 | 0.00 | 1.68 | 0.08 | 94 | 1009.1 |
| 20260507014522 | 8 | 31 | 0.0 | 6.4 | 0.00 | 1.68 | 0.08 | 94 | 1009.1 |
| 20260507014022 | 8 | 15 | 1.6 | 9.7 | 0.00 | 1.68 | 0.08 | 94 | 1009.1 |
| 20260507013518 | 8 | 34 | 1.6 | 9.7 | 0.00 | 1.68 | 0.08 | 94 | 1009.1 |
| 20260507013018 | 8 | 24 | 1.6 | 6.4 | 0.00 | 1.68 | 0.08 | 94 | 1009.0 |
| 20260507012519 | 8 | 17 | 1.6 | 6.4 | 0.00 | 1.68 | 0.08 | 94 | 1009.1 |
| 20260507012017 | 8 | 16 | 1.6 | 6.4 | 0.00 | 1.68 | 0.08 | 94 | 1009.0 |
| 20260507011617 | 8 | 16 | 3.2 | 6.4 | 0.00 | 1.68 | 0.08 | 94 | 1008.9 |
| 20260507011015 | 8 | 5 | 3.2 | 9.7 | 0.00 | 1.68 | 0.08 | 94 | 1008.9 |
| 20260507010518 | 8 | 310 | 1.6 | 6.4 | 0.00 | 1.68 | 0.08 | 94 | 1008.9 |
| 20260507010028 | 8 | 11 | 3.2 | 6.4 | 0.00 | 1.68 | 0.08 | 94 | 1008.9 |
| 20260507005515 | 8 | 11 | 1.6 | 6.4 | 0.00 | 1.85 | 0.08 | 94 | 1009.0 |
| 20260507005021 | 8 | 9 | 0.0 | 6.4 | 0.00 | 1.85 | 0.08 | 94 | 1008.9 |
| 20260507004519 | 8 | 327 | 3.2 | 14.5 | 0.00 | 1.85 | 0.08 | 94 | 1008.9 |
| 20260507004013 | 8 | 19 | 4.8 | 14.5 | 0.00 | 1.85 | 0.08 | 94 | 1008.8 |
| 20260507003512 | 8 | 5 | 1.6 | 4.8 | 0.00 | 1.85 | 0.08 | 94 | 1008.8 |
| 20260507003012 | 8 | 318 | 0.0 | 4.8 | 0.00 | 1.85 | 0.08 | 94 | 1008.8 |
| 20260507002512 | 8 | 5 | 0.0 | 4.8 | 0.00 | 1.85 | 0.08 | 94 | 1008.7 |
| 20260507002011 | 8 | 317 | 0.0 | 4.8 | 0.00 | 1.85 | 0.08 | 94 | 1008.7 |
| 20260507001511 | 8 | 317 | 0.0 | 4.8 | 0.00 | 1.85 | 0.08 | 94 | 1008.6 |
| 20260507001009 | 8 | 290 | 1.6 | 4.8 | 0.03 | 1.85 | 0.08 | 94 | 1008.6 |
| 20260507000517 | 8 | 317 | 1.6 | 6.4 | 0.03 | 1.85 | 0.08 | 94 | 1008.5 |
| 20260507000110 | 8 | 307 | 0.0 | 6.4 | 0.03 | 1.85 | 0.08 | 94 | 1008.6 |
| 20260506235509 | 8 | 311 | 1.6 | 4.8 | 0.03 | 2.08 | 0.08 | 94 | 1008.6 |
| 20260506235011 | 8 | 291 | 0.0 | 4.8 | 0.03 | 2.08 | 0.08 | 94 | 1008.6 |
| 20260506234508 | 8 | 336 | 0.0 | 6.4 | 0.03 | 2.08 | 0.08 | 94 | 1008.6 |
| 20260506234008 | 8 | 300 | 1.6 | 6.4 | 0.05 | 2.08 | 0.08 | 94 | 1008.6 |
| 20260506233508 | 8 | 251 | 1.6 | 6.4 | 0.05 | 2.08 | 0.08 | 94 | 1008.6 |
| 20260506233006 | 8 | 319 | 0.0 | 4.8 | 0.05 | 2.08 | 0.08 | 94 | 1008.6 |
| 20260506232505 | 8 | 319 | 1.6 | 4.8 | 0.05 | 2.08 | 0.08 | 94 | 1008.6 |
| 20260506232007 | 8 | 318 | 0.0 | 3.2 | 0.08 | 2.08 | 0.08 | 94 | 1008.5 |
| 20260506231505 | 8 | 315 | 0.0 | 4.8 | 0.08 | 2.08 | 0.08 | 94 | 1008.5 |
| 20260506231004 | 8 | 315 | 1.6 | 4.8 | 0.05 | 2.06 | 0.05 | 94 | 1008.5 |
| 20260506230514 | 8 | 315 | 0.0 | 3.2 | 0.05 | 2.06 | 0.05 | 94 | 1008.5 |
| 20260506230002 | 8 | 315 | 0.0 | 4.8 | 0.05 | 2.06 | 0.05 | 94 | 1008.5 |
| 20260506225605 | 8 | 315 | 1.6 | 4.8 | 0.08 | 2.21 | 0.05 | 94 | 1008.4 |
| 20260506225059 | 8 | 313 | 0.0 | 3.2 | 0.08 | 2.21 | 0.05 | 94 | 1008.4 |
| 20260506224557 | 8 | 313 | 1.6 | 3.2 | 0.08 | 2.21 | 0.05 | 94 | 1008.5 |
| 20260506224055 | 8 | 312 | 1.6 | 3.2 | 0.05 | 2.21 | 0.05 | 94 | 1008.5 |
| 20260506223557 | 8 | 312 | 0.0 | 1.6 | 0.08 | 2.21 | 0.05 | 94 | 1008.5 |
| 20260506223058 | 8 | 312 | 0.0 | 3.2 | 0.08 | 2.21 | 0.05 | 94 | 1008.5 |
| 20260506222551 | 8 | 312 | 0.0 | 3.2 | 0.05 | 2.18 | 0.03 | 94 | 1008.4 |
| 20260506222049 | 8 | 315 | 0.0 | 4.8 | 0.05 | 2.16 | 0.00 | 94 | 1008.4 |
| 20260506221547 | 8 | 315 | 0.0 | 4.8 | 0.05 | 2.16 | 0.00 | 94 | 1008.4 |
| 20260506221047 | 8 | 315 | 0.0 | 4.8 | 0.05 | 2.16 | 0.00 | 94 | 1008.4 |
| 20260506220545 | 8 | 266 | 0.0 | 6.4 | 0.05 | 2.16 | 0.00 | 94 | 1008.3 |
| 20260506220043 | 8 | 341 | 0.0 | 3.2 | 0.05 | 2.16 | 0.00 | 94 | 1008.3 |
| 20260506215543 | 8 | 341 | 0.0 | 6.4 | 0.05 | 2.16 | 2.13 | 94 | 1008.2 |
| 20260506215044 | 8 | 341 | 1.6 | 6.4 | 0.05 | 2.16 | 2.13 | 94 | 1008.2 |
| 20260506214544 | 8 | 265 | 0.0 | 3.2 | 0.05 | 2.16 | 2.13 | 94 | 1008.1 |
| 20260506214042 | 8 | 323 | 0.0 | 3.2 | 0.05 | 2.16 | 2.13 | 94 | 1008.1 |
| 20260506213543 | 8 | 323 | 0.0 | 3.2 | 0.03 | 2.13 | 2.11 | 94 | 1008.1 |
| 20260506213040 | 8 | 323 | 0.0 | 3.2 | 0.03 | 2.13 | 2.11 | 94 | 1008.0 |
| 20260506212541 | 8 | 323 | 0.0 | 3.2 | 0.03 | 2.13 | 2.11 | 94 | 1008.0 |
| 20260506212040 | 8 | 323 | 0.0 | 3.2 | 0.03 | 2.13 | 2.11 | 94 | 1008.0 |
| 20260506211539 | 8 | 324 | 0.0 | 3.2 | 0.03 | 2.13 | 2.11 | 94 | 1007.9 |
| 20260506211039 | 8 | 323 | 0.0 | 4.8 | 0.03 | 2.13 | 2.11 | 94 | 1007.9 |
| 20260506210539 | 8 | 22 | 0.0 | 4.8 | 0.00 | 2.11 | 2.11 | 94 | 1007.9 |
| 20260506210040 | 8 | 22 | 0.0 | 4.8 | 0.00 | 2.11 | 2.11 | 94 | 1007.8 |
| 20260506205538 | 8 | 25 | 0.0 | 4.8 | 0.00 | 2.11 | 2.11 | 94 | 1007.7 |
| 20260506205038 | 8 | 22 | 0.0 | 3.2 | 0.00 | 2.11 | 2.11 | 94 | 1007.8 |
| 20260506204548 | 8 | 22 | 0.0 | 1.6 | 0.00 | 2.11 | 2.11 | 94 | 1007.8 |
| 20260506204038 | 8 | 22 | 0.0 | 4.8 | 0.00 | 2.11 | 2.11 | 94 | 1007.8 |
| 20260506203533 | 8 | 22 | 0.0 | 4.8 | 0.00 | 2.11 | 2.11 | 94 | 1007.7 |
| 20260506203033 | 8 | 22 | 0.0 | 4.8 | 0.00 | 2.11 | 2.11 | 94 | 1007.7 |
| 20260506202533 | 8 | 22 | 1.6 | 4.8 | 0.00 | 2.11 | 2.11 | 94 | 1007.8 |
| 20260506202033 | 8 | 22 | 0.0 | 8.0 | 0.00 | 2.11 | 2.11 | 94 | 1007.7 |
| 20260506201535 | 8 | 22 | 3.2 | 8.0 | 0.00 | 2.11 | 2.11 | 94 | 1007.7 |
| 20260506201031 | 8 | 271 | 0.0 | 4.8 | 0.00 | 2.11 | 2.11 | 94 | 1007.6 |
| 20260506200531 | 8 | 270 | 0.0 | 8.0 | 0.00 | 2.11 | 2.11 | 94 | 1007.6 |
| 20260506200033 | 8 | 333 | 0.0 | 8.0 | 0.00 | 2.11 | 2.11 | 94 | 1007.6 |
| 20260506195530 | 8 | 31 | 0.0 | 4.8 | 0.00 | 2.11 | 2.11 | 94 | 1007.5 |
| 20260506195033 | 8 | 355 | 0.0 | 4.8 | 0.00 | 2.11 | 2.11 | 94 | 1007.4 |
| 20260506194530 | 8 | 328 | 0.0 | 3.2 | 0.00 | 2.11 | 2.11 | 94 | 1007.5 |
| 20260506194029 | 8 | 296 | 0.0 | 4.8 | 0.03 | 2.11 | 2.11 | 94 | 1007.5 |
| 20260506193528 | 8 | 296 | 0.0 | 4.8 | 0.03 | 2.11 | 2.11 | 94 | 1007.5 |
| 20260506193028 | 8 | 311 | 0.0 | 4.8 | 0.03 | 2.11 | 2.11 | 94 | 1007.4 |
| 20260506192528 | 8 | 311 | 0.0 | 4.8 | 0.03 | 2.11 | 2.11 | 94 | 1007.4 |
| 20260506192027 | 8 | 310 | 0.0 | 3.2 | 0.03 | 2.11 | 2.11 | 94 | 1007.3 |
| 20260506191527 | 8 | 310 | 0.0 | 3.2 | 0.03 | 2.11 | 2.11 | 94 | 1007.2 |
| 20260506191025 | 8 | 310 | 0.0 | 3.2 | 0.03 | 2.11 | 2.11 | 94 | 1007.1 |
| 20260506190626 | 8 | 310 | 0.0 | 3.2 | 0.03 | 2.11 | 2.11 | 94 | 1007.1 |
| 20260506190023 | 8 | 309 | 0.0 | 3.2 | 0.03 | 2.11 | 2.11 | 94 | 1007.1 |
| 20260506185523 | 8 | 309 | 0.0 | 3.2 | 0.03 | 2.11 | 2.11 | 94 | 1007.0 |
| 20260506185023 | 8 | 308 | 0.0 | 3.2 | 0.03 | 2.11 | 2.11 | 93 | 1006.9 |
| 20260506184522 | 8 | 309 | 0.0 | 4.8 | 0.03 | 2.11 | 2.11 | 93 | 1006.8 |
| 20260506184022 | 8 | 308 | 1.6 | 6.4 | 0.00 | 2.11 | 2.08 | 93 | 1006.7 |
| 20260506183521 | 8 | 346 | 1.6 | 6.4 | 0.03 | 2.11 | 2.08 | 93 | 1006.7 |
| 20260506183021 | 8 | 38 | 0.0 | 4.8 | 0.03 | 2.11 | 2.08 | 93 | 1006.7 |
| 20260506182519 | 8 | 9 | 1.6 | 4.8 | 0.03 | 2.11 | 2.08 | 93 | 1006.6 |
| 20260506182019 | 8 | 31 | 0.0 | 4.8 | 0.05 | 2.11 | 2.08 | 94 | 1006.6 |
| 20260506181525 | 8 | 31 | 0.0 | 4.8 | 0.05 | 2.11 | 2.08 | 94 | 1006.6 |
| 20260506181021 | 8 | 50 | 0.0 | 4.8 | 0.05 | 2.11 | 2.08 | 94 | 1006.5 |
| 20260506180521 | 8 | 50 | 1.6 | 6.4 | 0.05 | 2.11 | 2.08 | 93 | 1006.5 |
| 20260506180017 | 8 | 18 | 1.6 | 8.0 | 0.05 | 2.11 | 2.08 | 93 | 1006.5 |
| 20260506175516 | 8 | 19 | 3.2 | 8.0 | 0.05 | 2.11 | 2.08 | 93 | 1006.4 |
| 20260506175015 | 8 | 347 | 3.2 | 4.8 | 0.08 | 2.11 | 2.08 | 93 | 1006.2 |
| 20260506174515 | 8 | 346 | 1.6 | 4.8 | 0.08 | 2.11 | 2.08 | 93 | 1006.2 |
| 20260506174020 | 8 | 344 | 1.6 | 4.8 | 0.10 | 2.11 | 2.08 | 93 | 1006.2 |
| 20260506173515 | 8 | 321 | 1.6 | 4.8 | 0.10 | 2.08 | 2.06 | 93 | 1006.1 |
| 20260506173015 | 8 | 35 | 1.6 | 4.8 | 0.13 | 2.08 | 2.06 | 93 | 1006.1 |
| 20260506172514 | 8 | 35 | 1.6 | 6.4 | 0.15 | 2.08 | 2.06 | 93 | 1006.2 |
| 20260506172014 | 8 | 51 | 1.6 | 6.4 | 0.13 | 2.06 | 2.03 | 93 | 1006.2 |
| 20260506171522 | 8 | 37 | 1.6 | 4.8 | 0.15 | 2.06 | 2.03 | 93 | 1006.1 |
| 20260506171114 | 8 | 41 | 1.6 | 6.4 | 0.15 | 2.06 | 2.03 | 93 | 1006.2 |
| 20260506170512 | 8 | 41 | 1.6 | 6.4 | 0.15 | 2.06 | 2.03 | 93 | 1006.1 |
| 20260506170014 | 8 | 16 | 0.0 | 1.6 | 0.15 | 2.03 | 2.03 | 93 | 1006.1 |
| 20260506165512 | 8 | 16 | 0.0 | 3.2 | 0.15 | 2.03 | 2.03 | 93 | 1006.2 |
| 20260506165013 | 8 | 16 | 0.0 | 4.8 | 0.13 | 2.03 | 2.01 | 93 | 1006.2 |
| 20260506164511 | 8 | 16 | 0.0 | 6.4 | 0.10 | 2.01 | 1.98 | 93 | 1006.1 |
| 20260506164013 | 8 | 17 | 3.2 | 6.4 | 0.10 | 2.01 | 1.98 | 93 | 1006.0 |
| 20260506163513 | 8 | 15 | 1.6 | 4.8 | 0.08 | 1.98 | 1.96 | 93 | 1006.0 |
| 20260506163011 | 8 | 13 | 1.6 | 4.8 | 0.08 | 1.96 | 1.93 | 93 | 1006.0 |
| 20260506162512 | 8 | 11 | 0.0 | 8.0 | 0.05 | 1.93 | 1.93 | 93 | 1006.0 |
| 20260506162010 | 8 | 11 | 3.2 | 8.0 | 0.08 | 1.93 | 1.93 | 94 | 1006.1 |
| 20260506161511 | 8 | 324 | 1.6 | 4.8 | 0.08 | 1.93 | 1.91 | 94 | 1006.1 |
| 20260506161010 | 8 | 324 | 1.6 | 4.8 | 0.08 | 1.93 | 1.91 | 94 | 1006.0 |
| 20260506160511 | 8 | 26 | 1.6 | 4.8 | 0.08 | 1.91 | 1.88 | 94 | 1006.0 |
| 20260506160010 | 8 | 27 | 1.6 | 6.4 | 0.10 | 1.91 | 1.88 | 94 | 1006.0 |
| 20260506155508 | 8 | 21 | 1.6 | 6.4 | 0.10 | 1.91 | 1.88 | 93 | 1006.0 |
| 20260506155010 | 8 | 350 | 1.6 | 4.8 | 0.10 | 1.91 | 1.88 | 93 | 1006.0 |
| 20260506154508 | 8 | 19 | 1.6 | 4.8 | 0.13 | 1.91 | 1.88 | 93 | 1006.0 |
| 20260506154007 | 8 | 29 | 0.0 | 4.8 | 0.13 | 1.91 | 1.88 | 93 | 1006.0 |
| 20260506153509 | 8 | 11 | 1.6 | 4.8 | 0.13 | 1.91 | 1.88 | 93 | 1006.0 |
| 20260506153007 | 8 | 11 | 0.0 | 4.8 | 0.10 | 1.88 | 1.85 | 93 | 1005.9 |
| 20260506152508 | 8 | 9 | 1.6 | 4.8 | 0.10 | 1.88 | 1.85 | 93 | 1005.9 |
| 20260506152007 | 8 | 11 | 1.6 | 9.7 | 0.08 | 1.85 | 1.83 | 93 | 1005.9 |
| 20260506151507 | 8 | 5 | 3.2 | 9.7 | 0.05 | 1.83 | 1.83 | 93 | 1006.0 |
| 20260506151010 | 8 | 355 | 3.2 | 8.0 | 0.05 | 1.83 | 1.83 | 93 | 1006.0 |
| 20260506150509 | 8 | 19 | 3.2 | 8.0 | 0.05 | 1.83 | 1.80 | 93 | 1006.0 |
| 20260506150010 | 8 | 355 | 3.2 | 8.0 | 0.03 | 1.80 | 1.78 | 93 | 1005.9 |
| 20260506145505 | 8 | 333 | 1.6 | 4.8 | 0.03 | 1.80 | 1.78 | 93 | 1005.9 |
| 20260506145005 | 9 | 330 | 1.6 | 11.3 | 0.03 | 1.80 | 1.78 | 93 | 1005.9 |
| 20260506144505 | 9 | 20 | 0.0 | 4.8 | 0.00 | 1.78 | 1.75 | 93 | 1005.9 |
| 20260506144005 | 9 | 351 | 0.0 | 4.8 | 0.00 | 1.78 | 1.75 | 93 | 1005.8 |
| 20260506143505 | 9 | 26 | 1.6 | 6.4 | 0.00 | 1.78 | 1.75 | 93 | 1005.8 |
| 20260506143012 | 8 | 26 | 3.2 | 6.4 | 0.00 | 1.78 | 1.75 | 93 | 1005.7 |
| 20260506142503 | 9 | 5 | 3.2 | 6.4 | 0.00 | 1.78 | 1.75 | 93 | 1005.7 |
| 20260506142002 | 8 | 22 | 3.2 | 6.4 | 0.00 | 1.78 | 1.75 | 93 | 1005.6 |
| 20260506141502 | 8 | 30 | 1.6 | 6.4 | 0.00 | 1.78 | 1.75 | 93 | 1005.7 |
| 20260506141002 | 8 | 34 | 3.2 | 6.4 | 0.00 | 1.78 | 1.75 | 93 | 1005.7 |
| 20260506140502 | 8 | 24 | 1.6 | 6.4 | 0.00 | 1.78 | 1.75 | 93 | 1005.7 |
| 20260506140112 | 8 | 15 | 1.6 | 8.0 | 0.00 | 1.78 | 1.75 | 93 | 1005.8 |
| 20260506135600 | 8 | 13 | 3.2 | 9.7 | 0.00 | 1.78 | 1.75 | 93 | 1005.7 |
| 20260506135100 | 8 | 12 | 4.8 | 9.7 | 0.00 | 1.78 | 1.75 | 93 | 1005.7 |
| 20260506134600 | 8 | 355 | 3.2 | 6.4 | 0.00 | 1.78 | 1.75 | 93 | 1005.7 |
| 20260506134500 | 9 | 5 | 3.2 | 6.4 | 0.00 | 1.78 | 1.75 | 93 | 1005.6 |
| 20260506134100 | 8 | 57 | 1.6 | 9.7 | 0.00 | 1.78 | 1.75 | 93 | 1005.7 |
| 20260506133600 | 8 | 27 | 3.2 | 9.7 | 0.00 | 1.78 | 1.75 | 93 | 1005.7 |
| 20260506133101 | 8 | 65 | 3.2 | 8.0 | 0.00 | 1.78 | 1.75 | 93 | 1005.7 |
| 20260506132605 | 8 | 82 | 3.2 | 8.0 | 0.00 | 1.78 | 1.75 | 93 | 1005.7 |
| 20260506132100 | 8 | 32 | 3.2 | 8.0 | 0.00 | 1.78 | 1.75 | 93 | 1005.6 |
| 20260506131601 | 8 | 28 | 3.2 | 9.7 | 0.00 | 1.78 | 1.75 | 93 | 1005.6 |
| 20260506131100 | 8 | 19 | 6.4 | 9.7 | 0.00 | 1.78 | 1.75 | 93 | 1005.5 |
| 20260506130602 | 8 | 13 | 4.8 | 9.7 | 0.00 | 1.78 | 1.75 | 93 | 1005.5 |
| 20260506130133 | 8 | 30 | 3.2 | 8.0 | 0.00 | 1.78 | 1.75 | 93 | 1005.5 |
| 20260506125602 | 8 | 72 | 3.2 | 6.4 | 0.00 | 1.78 | 1.75 | 94 | 1005.6 |
| 20260506125058 | 8 | 32 | 1.6 | 6.4 | 0.00 | 1.78 | 1.75 | 94 | 1005.6 |
| 20260506124558 | 8 | 9 | 1.6 | 6.4 | 0.00 | 1.78 | 1.75 | 94 | 1005.5 |
| 20260506124058 | 8 | 360 | 1.6 | 9.7 | 0.00 | 1.78 | 1.75 | 94 | 1005.5 |
| 20260506123559 | 8 | 19 | 3.2 | 8.0 | 0.03 | 1.78 | 1.75 | 94 | 1005.4 |
| 20260506123058 | 8 | 12 | 3.2 | 8.0 | 0.03 | 1.78 | 1.75 | 94 | 1005.3 |
| 20260506122558 | 8 | 28 | 3.2 | 8.0 | 0.03 | 1.78 | 1.75 | 94 | 1005.3 |
| 20260506122058 | 8 | 298 | 3.2 | 8.0 | 0.03 | 1.78 | 1.75 | 94 | 1005.3 |
| 20260506121557 | 8 | 26 | 4.8 | 8.0 | 0.03 | 1.78 | 1.75 | 94 | 1005.2 |
| 20260506121057 | 8 | 19 | 3.2 | 6.4 | 0.03 | 1.78 | 1.75 | 94 | 1005.2 |
| 20260506120556 | 8 | 26 | 1.6 | 6.4 | 0.05 | 1.78 | 1.75 | 94 | 1005.2 |
| 20260506120059 | 8 | 11 | 3.2 | 8.0 | 0.05 | 1.78 | 1.75 | 94 | 1005.0 |
| 20260506115556 | 8 | 11 | 1.6 | 8.0 | 0.05 | 1.78 | 1.75 | 94 | 1005.1 |
| 20260506115054 | 8 | 5 | 1.6 | 8.0 | 0.05 | 1.78 | 1.75 | 94 | 1005.0 |
| 20260506114556 | 8 | 5 | 1.6 | 8.0 | 0.05 | 1.78 | 1.75 | 94 | 1005.0 |
| 20260506114053 | 8 | 17 | 3.2 | 9.7 | 0.05 | 1.78 | 1.75 | 94 | 1004.9 |
| 20260506113553 | 8 | 13 | 3.2 | 9.7 | 0.05 | 1.75 | 1.75 | 94 | 1005.0 |
| 20260506113103 | 8 | 5 | 3.2 | 6.4 | 0.05 | 1.75 | 1.75 | 93 | 1005.0 |
| 20260506112552 | 8 | 283 | 1.6 | 8.0 | 0.05 | 1.75 | 1.75 | 93 | 1005.0 |
| 20260506112054 | 8 | 17 | 1.6 | 4.8 | 0.05 | 1.75 | 1.75 | 93 | 1005.1 |
| 20260506111553 | 8 | 17 | 1.6 | 6.4 | 0.05 | 1.75 | 1.75 | 93 | 1005.1 |
| 20260506111052 | 8 | 28 | 1.6 | 6.4 | 0.05 | 1.75 | 1.75 | 94 | 1005.2 |
| 20260506110551 | 8 | 35 | 1.6 | 8.0 | 0.03 | 1.75 | 1.73 | 93 | 1005.1 |
| 20260506110059 | 8 | 5 | 1.6 | 8.0 | 0.03 | 1.75 | 1.73 | 93 | 1005.0 |
| 20260506105551 | 8 | 17 | 3.2 | 9.7 | 0.00 | 1.73 | 1.70 | 93 | 1005.0 |
| 20260506105050 | 8 | 5 | 3.2 | 9.7 | 0.03 | 1.73 | 1.70 | 93 | 1004.9 |
| 20260506104605 | 8 | 19 | 4.8 | 8.0 | 0.03 | 1.73 | 1.70 | 93 | 1004.9 |
| 20260506104050 | 8 | 28 | 3.2 | 8.0 | 0.03 | 1.73 | 1.70 | 93 | 1004.9 |
| 20260506103550 | 8 | 27 | 3.2 | 11.3 | 0.03 | 1.73 | 1.70 | 93 | 1004.9 |
| 20260506103051 | 8 | 14 | 6.4 | 11.3 | 0.03 | 1.73 | 1.70 | 94 | 1004.8 |
| 20260506102550 | 8 | 38 | 6.4 | 14.5 | 0.03 | 1.73 | 1.70 | 94 | 1004.8 |
| 20260506102048 | 8 | 28 | 4.8 | 9.7 | 0.05 | 1.73 | 1.70 | 94 | 1004.8 |
| 20260506101556 | 8 | 34 | 4.8 | 9.7 | 0.05 | 1.73 | 1.70 | 94 | 1004.7 |
| 20260506101049 | 8 | 28 | 3.2 | 8.0 | 0.05 | 1.73 | 1.70 | 94 | 1004.7 |
| 20260506100550 | 8 | 9 | 3.2 | 9.7 | 0.05 | 1.73 | 1.70 | 93 | 1004.6 |
| 20260506100048 | 8 | 350 | 4.8 | 9.7 | 0.05 | 1.73 | 1.70 | 93 | 1004.6 |
| 20260506095550 | 8 | 334 | 3.2 | 6.4 | 0.05 | 1.73 | 1.70 | 93 | 1004.6 |
| 20260506095047 | 8 | 360 | 3.2 | 8.0 | 0.03 | 1.70 | 1.68 | 93 | 1004.6 |
| 20260506094555 | 8 | 13 | 3.2 | 8.0 | 0.03 | 1.70 | 1.68 | 93 | 1004.6 |
| 20260506094047 | 8 | 32 | 3.2 | 8.0 | 0.03 | 1.70 | 1.68 | 94 | 1004.6 |
| 20260506093548 | 8 | 60 | 1.6 | 9.7 | 0.03 | 1.70 | 1.68 | 93 | 1004.5 |
| 20260506093053 | 8 | 32 | 3.2 | 9.7 | 0.03 | 1.70 | 1.68 | 93 | 1004.5 |
| 20260506092546 | 8 | 21 | 4.8 | 9.7 | 0.03 | 1.70 | 1.68 | 93 | 1004.4 |
| 20260506092046 | 8 | 20 | 3.2 | 9.7 | 0.00 | 1.68 | 1.65 | 93 | 1004.4 |
| 20260506091545 | 8 | 36 | 4.8 | 9.7 | 0.00 | 1.68 | 1.65 | 93 | 1004.4 |
| 20260506091047 | 8 | 19 | 3.2 | 8.0 | 0.00 | 1.68 | 1.65 | 93 | 1004.3 |
| 20260506090550 | 8 | 73 | 1.6 | 6.4 | 0.00 | 1.68 | 1.65 | 93 | 1004.3 |
| 20260506090045 | 8 | 9 | 3.2 | 6.4 | 0.00 | 1.68 | 1.65 | 93 | 1004.3 |
| 20260506085544 | 8 | 59 | 1.6 | 8.0 | 0.00 | 1.68 | 1.65 | 93 | 1004.2 |
| 20260506085044 | 8 | 18 | 3.2 | 9.7 | 0.00 | 1.68 | 1.65 | 93 | 1004.1 |
| 20260506084548 | 8 | 339 | 3.2 | 8.0 | 0.00 | 1.68 | 1.65 | 93 | 1004.1 |
| 20260506084044 | 8 | 13 | 3.2 | 9.7 | 0.00 | 1.68 | 1.65 | 93 | 1004.1 |
| 20260506083542 | 8 | 16 | 3.2 | 12.9 | 0.00 | 1.68 | 1.65 | 93 | 1004.0 |
| 20260506083041 | 8 | 13 | 4.8 | 12.9 | 0.00 | 1.68 | 1.65 | 93 | 1004.0 |
| 20260506082542 | 8 | 35 | 3.2 | 9.7 | 0.00 | 1.68 | 1.65 | 93 | 1004.0 |
| 20260506082044 | 8 | 28 | 4.8 | 11.3 | 0.00 | 1.68 | 1.65 | 93 | 1004.0 |
| 20260506081539 | 8 | 36 | 6.4 | 12.9 | 0.00 | 1.68 | 1.65 | 93 | 1003.9 |
| 20260506081037 | 8 | 25 | 4.8 | 12.9 | 0.00 | 1.68 | 1.65 | 93 | 1003.9 |
| 20260506080536 | 8 | 15 | 4.8 | 9.7 | 0.00 | 1.68 | 1.65 | 93 | 1003.9 |